Location: Medlow Airstrip Trail, Medlow Bath NSW 2780, Australia
(33.6682°S, 150.3233°E)
Time: 09:41:20
(UTC+10:00)

Altair - All Passes

Search period start: 20 September 2019 00:00
Search period end: 30 September 2019 00:00
Orbit: 1501 x 1683 km, 47.2° (Epoch: 19 September)

Date Brightness Start Highest point End Pass type
(mag) Time Alt. Az. Time Alt. Az. Time Alt. Az.
20 Sep - 04:08:42 10° NNE 04:13:25 15° ENE 04:18:05 10° E visible
20 Sep - 06:07:43 10° NW 06:16:51 67° NE 06:25:58 10° ESE daylight
20 Sep - 08:13:02 10° W 08:21:52 49° SSW 08:30:49 10° SE daylight
20 Sep - 10:20:14 10° WSW 10:28:30 35° S 10:36:57 10° ESE daylight
20 Sep - 12:25:51 10° SW 12:35:00 55° SSE 12:44:24 10° ENE daylight
20 Sep - 14:30:40 10° WSW 14:39:50 57° NW 14:49:18 10° NNE daylight
20 Sep - 16:40:17 10° WNW 16:43:17 12° WNW 16:46:18 10° NW daylight
21 Sep - 03:44:42 10° NNE 03:48:23 13° ENE 03:52:02 10° E visible
21 Sep - 05:42:40 10° NNW 05:51:45 61° NE 06:00:46 10° ESE daylight
21 Sep - 07:47:42 10° W 07:56:38 52° SSW 08:05:38 10° SE daylight
21 Sep - 09:54:55 10° WSW 10:03:11 35° S 10:11:35 10° ESE daylight
21 Sep - 12:00:41 10° SW 12:09:45 52° SSE 12:19:03 10° E daylight
21 Sep - 14:05:28 10° WSW 14:14:42 62° NW 14:24:15 10° NNE daylight
21 Sep - 16:13:57 10° W 16:18:13 14° WNW 16:22:33 10° NNW daylight
22 Sep - 03:21:18 10° NE 03:23:20 11° ENE 03:25:22 10° ENE visible
22 Sep - 05:17:39 10° NNW 05:26:38 56° NE 05:35:33 10° ESE visible
22 Sep - 07:22:23 10° WNW 07:31:24 55° SSW 07:40:26 10° SE daylight
22 Sep - 09:29:36 10° WSW 09:37:51 35° S 09:46:14 10° ESE daylight
22 Sep - 11:35:31 10° SW 11:44:29 50° SSE 11:53:40 10° E daylight
22 Sep - 13:40:17 10° WSW 13:49:33 67° NW 13:59:10 10° NE daylight
22 Sep - 15:47:59 10° W 15:53:09 16° NW 15:58:25 10° NNW daylight
23 Sep - 04:52:39 10° NNW 05:01:32 51° NE 05:10:19 10° ESE visible
23 Sep - 06:57:05 10° WNW 07:06:10 58° SSW 07:15:16 10° SE daylight
23 Sep - 09:04:16 10° WSW 09:12:32 35° S 09:20:54 10° ESE daylight
23 Sep - 11:10:21 10° SW 11:19:13 47° SSE 11:28:18 10° E daylight
23 Sep - 13:15:06 10° WSW 13:24:25 73° NW 13:34:03 10° NE daylight
23 Sep - 15:22:13 10° W 15:28:05 18° NW 15:34:05 10° NNW daylight
24 Sep - 04:27:41 10° NNW 04:36:27 47° NE 04:45:04 10° ESE visible
24 Sep - 06:31:48 10° WNW 06:40:57 61° SSW 06:50:05 10° SE daylight
24 Sep - 08:38:56 10° WSW 08:47:12 35° S 08:55:34 10° ESE daylight
24 Sep - 10:45:10 10° SW 10:53:57 45° SSE 11:02:56 10° E daylight
24 Sep - 12:49:56 10° SW 12:59:16 78° NW 13:08:54 10° NE daylight
24 Sep - 14:56:36 10° W 15:03:01 21° NW 15:09:36 10° N daylight
25 Sep - 04:02:45 10° NNW 04:11:22 42° NE 04:19:49 10° ESE visible
25 Sep - 06:06:31 10° WNW 06:15:45 65° SSW 06:24:55 10° SE daylight
25 Sep - 08:13:34 10° WSW 08:21:53 36° S 08:30:16 10° ESE daylight
25 Sep - 10:19:58 10° SW 10:28:40 43° SSE 10:37:32 10° E daylight
25 Sep - 12:24:46 10° SW 12:34:06 84° NW 12:43:45 10° NE daylight
25 Sep - 14:31:03 10° WSW 14:37:56 23° NW 14:45:00 10° N daylight
26 Sep - 03:37:51 10° NNW 03:46:17 38° NE 03:54:32 10° ESE visible
26 Sep - 05:41:15 10° WNW 05:50:33 70° SSW 05:59:46 10° SE daylight
26 Sep - 07:48:13 10° WSW 07:56:35 37° S 08:05:00 10° SE daylight
26 Sep - 09:54:46 10° SW 10:03:23 41° SSE 10:12:09 10° E daylight
26 Sep - 11:59:36 10° SW 12:08:57 90° NNW 12:18:34 10° NE daylight
26 Sep - 14:05:35 10° WSW 14:12:53 26° NW 14:20:21 10° N daylight
27 Sep - 03:13:00 10° N 03:21:12 35° NE 03:29:14 10° ESE visible
27 Sep - 05:16:02 10° WNW 05:25:22 75° SW 05:34:36 10° SE visible
27 Sep - 07:22:51 10° WSW 07:31:16 37° S 07:39:43 10° SE daylight
27 Sep - 09:29:33 10° SW 09:38:06 40° SSE 09:46:45 10° E daylight
27 Sep - 11:34:27 10° SW 11:43:47 85° SE 11:53:22 10° NE daylight
27 Sep - 13:40:10 10° WSW 13:47:48 29° NW 13:55:37 10° N daylight
28 Sep - 02:48:11 10° N 02:56:07 31° NE 03:03:54 10° ESE visible
28 Sep - 04:50:48 10° WNW 05:00:11 80° SW 05:09:27 10° SE visible
28 Sep - 06:57:29 10° W 07:05:58 39° SSW 07:14:28 10° SE daylight
28 Sep - 09:04:19 10° SW 09:12:48 39° SSE 09:21:22 10° E daylight
28 Sep - 11:09:18 10° SW 11:18:36 79° SE 11:28:09 10° ENE daylight
28 Sep - 13:14:49 10° WSW 13:22:43 32° NW 13:30:50 10° N daylight
29 Sep - 02:23:25 10° N 02:31:03 28° NE 02:38:31 10° ESE visible
29 Sep - 04:25:35 10° NW 04:35:01 85° SW 04:44:17 10° SE visible
29 Sep - 06:32:07 10° W 06:40:41 40° SSW 06:49:13 10° SE daylight
29 Sep - 08:39:04 10° SW 08:47:30 37° S 08:55:59 10° ESE daylight
29 Sep - 10:44:08 10° SW 10:53:25 74° SE 11:02:54 10° ENE daylight
29 Sep - 12:49:29 10° WSW 12:57:38 35° NW 13:06:01 10° NNE daylight
